Change the Weather History Date:

Thursday, May 15, 2014

  Actual Average (KAKO) Record (KAKO)
Temperature  
Mean Temperature 50 °F 57 °F  
Max Temperature 63 °F 70 °F 90 °F (1978)
Min Temperature 38 °F 43 °F 30 °F (1945)
Degree Days  
Heating Degree Days 14    
Month to date heating degree days  
Cooling Degree Days 0    
Month to date cooling degree days  
Moisture  
Dew Point 34 °F    
Average Humidity 57    
Maximum Humidity 90    
Minimum Humidity 28    
Precipitation  
Precipitation 0.00 in 0.10 in 0.98 in (1951)
Month to date precipitation 1.29  
Year to date precipitation 4.55  
Sea Level Pressure  
Sea Level Pressure 30.23 in    
Wind  
Wind Speed 9 mph (NW)    
Max Wind Speed 26 mph    
Max Gust Speed 36 mph    
Visibility 10 miles    
Events      
T = Trace of Precipitation, MM = Missing Value Source: NWS Daily Summary

Daily Weather History Graph

Daily Weather History Graph

Search for Another Location

Airport or City:

Trip Planner

Search our weather history database for the weather conditions in past years. The results will help you decide how hot, cold, wet, or windy it might be!

Date:

Astronomy

May. 15, 2014 Rise Set
Actual Time 5:39 AM MDT 8:04 PM MDT
Civil Twilight 5:08 AM MDT 8:35 PM MDT
Nautical Twilight 4:30 AM MDT 9:13 PM MDT
Astronomical Twilight 3:47 AM MDT 9:56 PM MDT
Moon 9:14 PM MDT (5/15) 6:28 AM MDT (5/15)
Length of Visible Light 15h 27m
Length of Day
14h 25m
Full, 99% of the Moon is Illuminated
May 15
Full
May 21
Last Quarter
May 28
New
Jun 5
First Quarter
Jun 12
Full

Hourly Weather History & Observations

Time (MDT) Temp. Windchill Dew Point Humidity Pressure Visibility Wind Dir Wind Speed Gust Speed Precip Events Conditions
12:15 AM 38.8 °F 33.2 °F 36.0 °F 89% 30.32 in 10.0 mi West 8.1 mph - N/A   Scattered Clouds
12:35 AM 40.3 °F 37.1 °F 36.5 °F 86% 30.32 in 10.0 mi WNW 4.6 mph - N/A   Scattered Clouds
12:55 AM 40.8 °F 37.8 °F 36.5 °F 85% 30.31 in 10.0 mi WNW 4.6 mph - N/A   Mostly Cloudy
1:15 AM 40.6 °F 37.5 °F 36.9 °F 86% 30.30 in 10.0 mi West 4.6 mph - N/A   Overcast
1:35 AM 40.1 °F 36.1 °F 37.4 °F 90% 30.30 in 10.0 mi West 5.8 mph - N/A   Overcast
1:55 AM 41.0 °F 38.0 °F 37.4 °F 87% 30.29 in 10.0 mi West 4.6 mph - N/A   Overcast
2:15 AM 40.8 °F 35.6 °F 37.4 °F 88% 30.28 in 10.0 mi West 8.1 mph - N/A   Overcast
2:35 AM 41.0 °F 37.1 °F 37.6 °F 88% 30.28 in 10.0 mi West 5.8 mph - N/A   Overcast
2:55 AM 41.0 °F 35.8 °F 37.8 °F 88% 30.28 in 10.0 mi West 8.1 mph - N/A   Overcast
3:15 AM 41.0 °F 37.1 °F 37.0 °F 86% 30.26 in 10.0 mi WNW 5.8 mph - N/A   Mostly Cloudy
3:35 AM 40.6 °F 35.4 °F 36.7 °F 86% 30.26 in 10.0 mi WNW 8.1 mph - N/A   Mostly Cloudy
4:15 AM 43.2 °F 36.6 °F 35.4 °F 74% 30.26 in 10.0 mi WNW 12.7 mph - N/A   Overcast
4:35 AM 44.2 °F 38.0 °F 35.1 °F 70% 30.26 in 10.0 mi WNW 12.7 mph - N/A   Overcast
4:55 AM 43.7 °F 38.1 °F 35.6 °F 73% 30.25 in 10.0 mi WNW 10.4 mph - N/A   Overcast
5:15 AM 43.2 °F 37.4 °F 35.8 °F 75% 30.25 in 10.0 mi WNW 10.4 mph - N/A   Overcast
5:35 AM 43.0 °F 37.7 °F 36.1 °F 77% 30.25 in 10.0 mi West 9.2 mph - N/A   Overcast
5:55 AM 43.7 °F 39.1 °F 35.8 °F 74% 30.26 in 10.0 mi WNW 8.1 mph - N/A   Overcast
6:15 AM 45.0 °F 39.3 °F 35.2 °F 69% 30.26 in 10.0 mi WNW 11.5 mph 18.4 mph N/A   Overcast
6:35 AM 45.5 °F 39.9 °F 34.9 °F 66% 30.26 in 10.0 mi WNW 11.5 mph - N/A   Overcast
6:55 AM 45.9 °F 40.8 °F 34.7 °F 65% 30.27 in 10.0 mi WNW 10.4 mph - N/A   Overcast
7:15 AM 46.0 °F 41.4 °F 35.1 °F 66% 30.28 in 10.0 mi WNW 9.2 mph - N/A   Overcast
7:35 AM 46.6 °F - 36.0 °F 67% 30.27 in 10.0 mi WNW 9.2 mph - N/A   Overcast
7:55 AM 47.3 °F - 35.6 °F 64% 30.28 in 10.0 mi WNW 10.4 mph - N/A   Overcast
8:15 AM 48.2 °F - 36.0 °F 63% 30.28 in 10.0 mi WNW 12.7 mph - N/A   Overcast
8:35 AM 48.7 °F - 35.8 °F 61% 30.28 in 10.0 mi WNW 10.4 mph - N/A   Overcast
8:55 AM 49.6 °F - 35.4 °F 58% 30.28 in 10.0 mi NNW 9.2 mph - N/A   Overcast
9:15 AM 51.6 °F - 34.5 °F 52% 30.28 in 10.0 mi NNW 19.6 mph 23.0 mph N/A   Mostly Cloudy
9:35 AM 52.9 °F - 34.5 °F 50% 30.27 in 10.0 mi NNW 17.3 mph 23.0 mph N/A   Overcast
9:55 AM 53.1 °F - 33.4 °F 47% 30.27 in 10.0 mi NNW 15.0 mph 20.7 mph N/A   Overcast
10:15 AM 53.1 °F - 33.3 °F 47% 30.27 in 10.0 mi NNW 13.8 mph 17.3 mph N/A   Overcast
10:35 AM 54.0 °F - 32.4 °F 44% 30.27 in 10.0 mi NNW 11.5 mph - N/A   Overcast
10:55 AM 54.0 °F - 32.0 °F 43% 30.26 in 10.0 mi NW 12.7 mph - N/A   Overcast
11:15 AM 56.3 °F - 33.6 °F 42% 30.26 in 10.0 mi NW 12.7 mph - N/A   Overcast
11:35 AM 56.5 °F - 33.6 °F 42% 30.26 in 10.0 mi WNW 10.4 mph 18.4 mph N/A   Overcast
11:55 AM 57.9 °F - 34.7 °F 42% 30.26 in 10.0 mi NW 10.4 mph 13.8 mph N/A   Mostly Cloudy
12:15 PM 59.0 °F - 33.8 °F 39% 30.25 in 10.0 mi WNW 12.7 mph 17.3 mph N/A   Mostly Cloudy
1:15 PM 61.5 °F - 32.4 °F 33% 30.23 in 10.0 mi NW 17.3 mph 25.3 mph N/A   Scattered Clouds
1:35 PM 61.3 °F - 32.2 °F 33% 30.23 in 10.0 mi NW 15.0 mph 19.6 mph N/A   Mostly Cloudy
1:55 PM 62.8 °F - 32.2 °F 32% 30.22 in 10.0 mi NNW 15.0 mph 24.2 mph N/A   Scattered Clouds
2:15 PM 63.0 °F - 31.6 °F 31% 30.22 in 10.0 mi North 16.1 mph 23.0 mph N/A   Scattered Clouds
2:35 PM 63.5 °F - 29.8 °F 28% 30.21 in 10.0 mi NNW 23.0 mph 29.9 mph N/A   Clear
2:55 PM 63.5 °F - 30.6 °F 29% 30.20 in 10.0 mi North 13.8 mph 24.2 mph N/A   Scattered Clouds
3:15 PM 63.3 °F - 31.1 °F 30% 30.19 in 10.0 mi North 18.4 mph 24.2 mph N/A   Mostly Cloudy
3:35 PM 62.4 °F - 30.7 °F 30% 30.19 in 10.0 mi North 18.4 mph 25.3 mph N/A   Overcast
3:55 PM 60.6 °F - 33.1 °F 36% 30.20 in 10.0 mi North 26.5 mph 35.7 mph N/A   Mostly Cloudy
4:15 PM 59.4 °F - 33.8 °F 38% 30.19 in 10.0 mi North 20.7 mph 31.1 mph N/A   Scattered Clouds
4:35 PM 58.8 °F - 33.1 °F 38% 30.19 in 10.0 mi North 18.4 mph 24.2 mph N/A   Scattered Clouds
4:55 PM 58.5 °F - 32.4 °F 37% 30.19 in 10.0 mi North 18.4 mph - N/A   Scattered Clouds
5:15 PM 60.1 °F - 33.1 °F 36% 30.19 in 10.0 mi North 15.0 mph 20.7 mph N/A   Mostly Cloudy
5:35 PM 59.5 °F - 32.4 °F 36% 30.19 in 10.0 mi North 11.5 mph 18.4 mph N/A   Scattered Clouds
5:55 PM 60.1 °F - 32.7 °F 36% 30.18 in 10.0 mi North 10.4 mph 16.1 mph N/A   Scattered Clouds
6:15 PM 60.1 °F - 32.9 °F 36% 30.18 in 10.0 mi North 6.9 mph 10.4 mph N/A   Mostly Cloudy
6:35 PM 59.2 °F - 32.4 °F 36% 30.17 in 10.0 mi North 8.1 mph - N/A   Mostly Cloudy
6:55 PM 56.3 °F - 33.4 °F 42% 30.17 in 10.0 mi NNE 5.8 mph - N/A   Scattered Clouds
7:15 PM 57.7 °F - 36.0 °F 44% 30.17 in 10.0 mi Calm Calm - N/A   Clear
7:35 PM 57.2 °F - 33.8 °F 41% 30.17 in 10.0 mi Calm Calm - N/A   Clear
7:55 PM 55.6 °F - 35.1 °F 46% 30.17 in 10.0 mi South 3.5 mph - N/A   Scattered Clouds
8:15 PM 52.5 °F - 36.0 °F 53% 30.16 in 10.0 mi SSE 3.5 mph - N/A   Clear
8:35 PM 52.3 °F - 33.8 °F 49% 30.17 in 10.0 mi ESE 3.5 mph - N/A   Clear
8:55 PM 50.5 °F - 34.0 °F 53% 30.17 in 10.0 mi SE 4.6 mph - N/A   Clear
9:15 PM 50.2 °F - 33.6 °F 53% 30.17 in 10.0 mi SE 5.8 mph - N/A   Clear
9:35 PM 49.1 °F - 33.8 °F 56% 30.17 in 10.0 mi SSE 6.9 mph - N/A   Clear
9:55 PM 46.8 °F - 34.2 °F 62% 30.17 in 10.0 mi SSE 4.6 mph - N/A   Clear
10:15 PM 46.8 °F - 34.0 °F 61% 30.17 in 10.0 mi SSW 3.5 mph - N/A   Clear
10:35 PM 45.7 °F 43.4 °F 34.3 °F 65% 30.16 in 10.0 mi South 4.6 mph - N/A   Clear
10:55 PM 44.2 °F 42.7 °F 34.3 °F 68% 30.14 in 10.0 mi SSE 3.5 mph - N/A   Clear
11:15 PM 44.4 °F 42.9 °F 34.2 °F 67% 30.14 in 10.0 mi SW 3.5 mph - N/A   Clear
11:35 PM 44.2 °F 40.3 °F 33.8 °F 67% 30.13 in 10.0 mi South 6.9 mph - N/A   Clear
11:55 PM 43.7 °F 40.3 °F 33.6 °F 68% 30.12 in 10.0 mi South 5.8 mph - N/A   Clear